Simultaneous Nadir Overpasses (SNOs) Predictions

Prediction of SNOs between LANDSAT-8 and NOAA-19 Satellite Orbit:

Table of predicted SNOs for the next 14.0 days since TLE Epoch: 3/17/2014
Index Date (LANDSAT-8) Time (LANDSAT-8) Lat,Lon (LANDSAT-8) SZA (LANDSAT-8 ) Date (NOAA-19) Time (NOAA-19) Lat,Lon (NOAA-19) SZA (NOAA-19 ) Distance(km) Time Diff (sec)
1 03/19/2014 01:12:15 71.71, 160.75 72.30 03/19/2014 01:11:20 71.72, 160.78 72.31 1.55 55
2 03/19/2014 02:01:45 -71.60, -31.81 107.83 03/19/2014 02:02:23 -71.60, -31.76 107.84 1.69 38
3 03/21/2014 05:56:29 71.77, 89.77 71.48 03/21/2014 05:55:19 71.76, 89.75 71.47 1.93 70
4 03/21/2014 06:45:59 -71.66,-102.78 108.65 03/21/2014 06:46:23 -71.66,-102.86 108.64 2.64 24
5 03/23/2014 10:40:36 72.18, 19.42 71.02 03/23/2014 10:39:27 72.25, 17.81 71.12 55.19 69
6 03/23/2014 11:30:13 -71.70,-173.79 109.48 03/23/2014 11:30:22 -71.69,-173.87 109.48 3.27 9
7 03/25/2014 16:14:27 -71.72, 115.18 110.33 03/25/2014 16:14:21 -71.72, 115.09 110.32 3.19 6
8 03/25/2014 17:04:00 71.28, -77.89 69.24 03/25/2014 17:05:10 71.28, -76.84 69.22 37.63 70
9 03/27/2014 20:58:41 -71.72, 44.11 111.19 03/27/2014 20:58:19 -71.72, 44.13 111.19 0.65 22
10 03/27/2014 21:48:08 71.61,-148.43 68.69 03/27/2014 21:49:14 71.59,-148.37 68.68 2.54 66
11 03/30/2014 01:42:54 -71.75, -26.90 112.02 03/30/2014 01:42:18 -71.78, -26.95 111.99 3.05 36
12 03/30/2014 02:32:21 71.64, 140.56 67.86 03/30/2014 02:33:13 71.65, 140.55 67.88 1.64 52




NCC Satellite Simultaneous Nadir Overpasses (SNOs) Prediction Service
